www.pogodaiklimat.ru

Погода и климат >> Архив погоды >> КНДР >> Канге


ПОГОДА в Канге

  • Прогноз погоды в Канге
  • Монитор погоды в Канге

АРХИВ ПОГОДЫ в Канге

Время (UTC), дата Ветер
(напр.,м/с)
 
Видим.   Явления Облачность Т
(С)
Тd
(С)
f
(%)
Тe
(С)
Тes
(С)
Комфортность P
(гПа)
Po
(гПа)
Тmin
(С)
Tmax
(С)
R
(мм)
R24
(мм)
S
(см)
09 17.04 Ю 5 15 км 10/0
[Ci sp]
+18.2 +7.1 48 +18 +18 1004.2 968.3
12 17.04 Ю 4 20 км 10/10 600 м
[Sc diur, vesp]
+16.5 +6.8 53 +16 +16 1004.5 968.7 +22.3
15 17.04 штиль 0 15 км 10/10 600 м
[Sc diur, vesp]
+14.0 +8.6 70 +14 +14 1007.3 971.3
18 17.04 штиль 0 10 км слаб. дождь 10/0 600 м
[As op]
+11.0 +8.1 82 +10 +10 1009.6 971.0 2
21 17.04 штиль 0 10 км слаб. дождь 10/0 600 м
[As op]
+9.2 +7.7 90 +8 +8 1006.7 970.8 0.7
00 18.04 штиль 0 10 км слаб. дождь 10/0 600 м
[As op]
+9.0 +7.1 88 +8 +10 1008.5 972.5 +8.5 3
03 18.04 штиль 0 15 км 9/0 1500 м
[Ac trans]
+9.4 +4.5 71 +9 +19 опасность
простуды
1012.4 976.3 0.0
06 18.04 штиль 0 20 км 3/3 600 м
[Sc diur, vesp]
+12.4 +4.3 58 +12 +23 опасность
простуды
1012.5 976.4 0.0
09 18.04 штиль 0 20 км ясно +11.6 +2.7 54 +11 +13 1013.6 977.4
12 18.04 штиль 0 20 км ясно +8.0 +0.9 61 +8 +8 1016.6 980.4 +14.5 0.0
15 18.04 штиль 0 20 км ясно +4.3 -0.5 71 +4 +4 1017.5 981.2
18 18.04 штиль 0 20 км 8/8 600 м
[Sc diur, vesp]
+1.2 -2.5 76 0 0 1019.0 982.5
21 18.04 штиль 0 15 км 8/0 1500 м
[Ac trans]
+0.6 -1.9 83 -1 -1 1019.6 983.2
00 19.04 штиль 0 20 км 8/8 600 м
[Sc diur, vesp]
+4.9 +0.9 75 +4 +6 1020.2 983.8 +0.3
03 19.04 штиль 0 20 км 3/0
[Ci sp]
+12.3 +2.7 52 +12 +34 опасность
простуды
1018.5 982.1
06 19.04 штиль 0 20 км ясно +16.8 +4.8 45 +17 +33 опасность
простуды
1015.7 979.4
09 19.04 штиль 0 20 км ясно +18.0 +4.6 41 +18 +20 1013.6 977.5
12 19.04 штиль 0 20 км ясно +11.0 +0.9 50 +11 +11 1014.9 978.7 +19.0
15 19.04 штиль 0 20 км ясно +5.4 +0.4 70 +5 +5 1015.6 979.4
18 19.04 штиль 0 20 км 10/0
[Ci sp]
+2.8 -0.7 78 +2 +2 1015.4 979.2
21 19.04 штиль 0 20 км 4/4 600 м
[Sc diur, vesp]
+1.3 -1.9 79 0 0 1014.3 978.1
00 20.04 штиль 0 15 км 10/0 1500 м
[Ac trans]
+5.0 -0.2 69 +4 +8 1014.3 978.1 +0.4
03 20.04 штиль 0 10 км слаб. дождь 10/0 600 м
[As op]
+5.7 +2.1 78 +5 +9 1014.2 978.0 0.3
06 20.04 штиль 0 10 км слаб. дождь 10/0 600 м
[As op]
+5.8 +3.8 87 +5 +8 1012.4 976.3 6
09 20.04 штиль 0 10 км слаб. дождь 10/0 600 м
[As op]
+5.5 +3.6 88 +4 +5 1012.0 975.9 2
12 20.04 штиль 0 15 км {дождь} 10/10 600 м
[Sc diur, vesp]
+7.2 +5.4 88 +6 +6 1013.3 977.1 +7.5 7
15 20.04 штиль 0 15 км 10/10 600 м
[Sc diur, vesp]
+7.0 +5.4 90 +6 +6 1014.3 978.1
18 20.04 штиль 0 15 км 10/10 600 м
[Sc diur, vesp]
+7.0 +5.4 90 +6 +6 1013.6 977.4
21 20.04 штиль 0 15 км 10/10 600 м
[Sc diur, vesp]
+6.8 +4.8 87 +6 +6 1013.9 977.7
00 21.04 штиль 0 15 км 8/8 600 м
[Sc diur, vesp]
+8.7 +6.4 85 +8 +10 1014.7 978.5 +6.3
03 21.04 штиль 0 15 км 6/6 600 м
[Sc diur, vesp]
+12.9 +8.8 76 +13 +22 1014.3 978.1
06 21.04 штиль 0 15 км 10/0
[Ci sp]
+17.2 +9.4 60 +17 +30 опасность
простуды
1011.4 975.3
09 21.04 штиль 0 15 км 10/0
[Ci sp]
+18.3 +8.9 54 +19 +20 1010.7 974.7
12 21.04 штиль 0 15 км 10/0
[Ci sp]
+13.2 +8.0 71 +13 +13 1013.2 977.1 +19.0
15 21.04 штиль 0 20 км ясно +8.5 +5.1 79 +8 +8 1014.3 978.1
18 21.04 штиль 0 20 км ясно +6.0 +2.9 80 +5 +5 1015.4 979.3
21 21.04 штиль 0 20 км ясно +4.4 +2.7 89 +3 +3 1016.4 980.1
00 22.04 штиль 0 15 км 10/10 600 м
[Sc diur, vesp]
+7.0 +5.0 87 +6 +6 1016.4 980.1 +3.4
03 22.04 штиль 0 15 км 10/10 600 м
[Sc diur, vesp]
+13.4 +7.7 68 +13 +13 1014.9 978.7
06 22.04 штиль 0 20 км 10/0
[Ci sp]
+20.6 +12.1 58 +22 +36 комфорт 1011.1 975.0
09 22.04 Ю 4 20 км 10/0
[Ci sp]
+22.3 +10.7 48 +24 +25 комфорт 1009.4 973.4
12 22.04 штиль 0 20 км ясно +21.5 +12.9 58 +24 +24 комфорт 1011.4 975.4 +23.3
15 22.04 штиль 0 20 км ясно +19.5 +11.5 60 +21 +21 комфорт 1012.3 976.2
18 22.04 штиль 0 20 км ясно +15.0 +8.5 65 +15 +15 1012.5 976.4
21 22.04 штиль 0 20 км 3/0
[Ci sp]
+10.2 +6.8 79 +10 +10 1012.4 976.3
00 23.04 штиль 0 20 км 10/0
[Ci sp]
+13.3 +8.2 71 +13 +21 1011.6 975.6 +9.4
03 23.04 штиль 0 20 км 10/0
[Ci sp]
+23.3 +14.6 58 +27 +46 душно 1011.0 974.9
06 23.04 С 2 20 км 3/3 600 м
[Sc diur, vesp]
+26.8 +17.3 56 +31 +39 душно 1008.4 972.4
09 23.04 штиль 0 20 км 8/0 1500 м
[Ac trans]
+26.2 +17.3 58 +30 +31 душно 1007.4 971.4
12 23.04 штиль 0 20 км 10/0
[Ci sp]
+20.7 +14.4 67 +23 +23 комфорт 1008.6 972.6 +28.0
15 23.04 штиль 0 20 км ясно +16.0 +12.6 80 +16 +16 1009.9 973.9
18 23.04 штиль 0 20 км 8/8 600 м
[Sc diur, vesp]
+13.4 +9.9 79 +13 +13 1010.2 974.2
21 23.04 штиль 0 20 км 3/3 600 м
[Sc diur, vesp]
+12.0 +9.9 87 +11 +12 1009.6 973.6
00 24.04 штиль 0 20 км 8/0
[Ci sp]
+14.6 +11.2 80 +14 +23 1008.7 972.7 +11.5
03 24.04 штиль 0 15 км 10/10 600 м
[Sc diur, vesp]
+21.4 +15.7 70 +25 +25 комфорт 1006.9 971.0
06 24.04 штиль 0 20 км 10/0 1500 м
[Ac trans]
+18.3 +11.5 65 +19 +25 1008.0 972.0

 

Местоположение метеостанции Канге (КНДР): широта 40.97 долгота 126.60 высота над уровнем моря 306 м.

В архиве по умолчанию представлена погода в Канге за последнюю неделю. Архивные данные за месяц целиком и за предыдущие месяцы, начиная с января 2011 года, Вы можете получить, выбрав интересующий диапазон дат из раскрывающегося списка и нажав кнопку "Ввод!".


*Определитесь, кто Вы:
робот инопланетянин человек

Внимание! Время в таблицах - всемирное. Для получения местного времени необходимо прибавить поправку, которая равна 9 ч.

Смотрите также архив погоды в соседних городах и на ближайших метеорологических станциях:

Погода в Цзиане (Цзяньси, Китай) (40 км)
Погода в Джангджине (КНДР) (86 км)
Погода в Линьцзяне (Гирин, Китай) (87 км)
Погода в Чунгане (КНДР) (93 км)
Погода в Хыйчхоне (КНДР) (94 км)
Погода в Пунгсане (КНДР) (131 км)
Погода в Чанбае (Гирин, Китай) (137 км)
Погода в Хесене (КНДР) (139 км)
Погода в Хамхыне (КНДР) (141 км)
Погода на Плотине Сапунг (КНДР) (152 км)

Пояснения к столбцам:

Ветер - указаны скорость ветра в м/с - средняя за 10 мин, порывы в срок и между сроками (в фигурных скобках) и направление, откуда дует ветер: С - северный, СВ - северо-восточный, В - восточный, ЮВ - юго-восточный, Ю - южный, ЮЗ - юго-западный, З - западный, СЗ - северо-западный.
Видимость - горизонтальная дальность видимости в метрах или километрах. При видимости от 1 до 10 км при отсутствии осадков обычно наблюдается дымка, при ухудшении видимости до 1 км и менее - туман. В сухую погоду видимость может ухудшаться дымом, пылью или мглою.
Явления - указаны атмосферные явления, наблюдавшиеся в срок или в последний час перед сроком; фигурными скобками обозначены явления, наблюдавшиеся между сроками (за 1-3 часа до срока); квадратными скобками обозначены град или гололедные отложения с указанием их диаметра в мм.
Облачность - указаны через наклонную черту общая и нижняя облачность в баллах и высота нижней границы облаков в метрах; квадратными скобками обозначены формы облаков: Ci - перистые, Cs - перисто-слоистые, Cc - перисто-кучевые, Ac - высококучевые, As - высокослоистые, Sc - слоисто-кучевые, Ns - слоисто-дождевые, Cu - кучевые, Cb - кучево-дождевые. Подробнее классификацию облаков см. в Атласе облаков (PDF).
T - Температура воздуха - температура, измеренная на высоте 2 м над землей.
Td - Температура точки росы - температура, при понижении до которой содержащийся в воздухе водяной пар достигнет насыщения.
f - Относительная влажность воздуха - влажноcть воздуха, измеренная на высоте 2 м над землей.
Te - Эффективная температура - температура, которую ощущает одетый по сезону человек в тени. Характеристика душности погоды. При расчете учитывается влияние влажности воздуха и скорости ветра на теплоощущения человека.
Tes - Эффективная температура на солнце - температура, которую ощущает человек, с поправкой на солнечный нагрев. Характеристика знойности погоды. Зависит от высоты солнца над горизонтом, облачности и скорости ветра. Ночью, в пасмурную погоду, а также при ветре 12 м/с и более поправка равна нулю.
P - Атмосферное давление - приведенное к уровню моря атмосферное давление.
Po - Атмосферное давление - измеренное на уровне метеостанции атмосферное давление.
Tmin - Минимальная температура - минимум температуры воздуха на высоте 2 м над землей.
Tmax - Максимальная температура - максимум температуры воздуха на высоте 2 м над землей.
R - Количество осадков - Количество выпавших осадков за период времени, мм. При наведении курсора мыши на число - период времени, за который выпало указанное количество осадков.
R24 - Количество осадков - Количество выпавших осадков за 24 часа, мм.
S - Снежный покров - Высота снежного покрова, см. При наведении курсора мыши на число - состояние снежного покрова и степень покрытия местности в баллах.